Location: Kellogg
(38.0159°N, 90.0546°W)
Time: 01:36:08
(UTC+00:00)

SR - Pass Details

Date: 12 September 2024
Orbit: 577 x 855 km, 66.7° (Epoch: 10 October)

Event Time Altitude Azimuth Distance (km) Brightness Sun altitude
Rises 04:46:14 0° 335° (NNW) 2,946 ? -45.0°
Enters shadow 04:47:27 - 337° (NNW) 2,471 ? -45.1°
Reaches altitude 10° 04:48:29 10° 339° (NNW) 2,072 - -45.1°
Maximum altitude 04:53:08 63° 60° (ENE) 775 - -45.5°
Drops below altitude 10° 04:58:11 10° 142° (SE) 2,241 - -45.9°
Sets 05:00:41 0° 145° (SE) 3,207 - -46.1°
